CW0198 Weather Reports


Display with metric or nautical units.
time (UTC)temp
F
wind
direction
speed
MPH
gust
MPH
rain 1hr
in
rain 24hr
in
rain mn
in
humidity
%
barometer
mb
20260831111518 69 193 0.0 0.0 0.00 0.00 0.00 100 1019.1
20260831110046 69 193 0.0 0.0 0.00 0.00 0.00 100 1019.0
20260831104504 69 193 0.0 0.0 0.00 0.00 0.00 100 1018.7
20260831103027 68 193 0.0 0.0 0.00 0.00 0.00 100 1018.8
20260831101548 68 193 0.0 0.0 0.00 0.00 0.00 100 1018.6
20260831100016 68 193 0.0 0.0 0.00 0.00 0.00 100 1018.5
20260831094539 68 193 0.0 0.0 0.00 0.00 0.00 100 1018.6
20260831093112 69 193 0.0 0.0 0.00 0.00 0.00 100 1018.7
20260831093007 68 193 0.0 0.0 0.00 0.00 0.00 100 1018.6
20260831091522 68 193 0.0 0.0 0.00 0.00 0.00 100 1018.6
20260831090056 68 193 0.0 0.0 0.00 0.00 0.00 100 1018.6
20260831084510 68 193 0.0 0.0 0.00 0.00 0.00 100 1018.6
20260831083025 69 193 0.0 0.0 0.00 0.00 0.00 100 1018.5
20260831081553 69 193 0.0 0.0 0.00 0.00 0.00 100 1018.6
20260831080011 69 193 0.0 0.0 0.00 0.00 0.00 100 1018.7
20260831074541 69 193 0.0 0.0 0.00 0.00 0.00 100 1018.8
20260831073057 69 193 0.0 0.0 0.00 0.00 0.00 100 1018.8
20260831071534 69 193 0.0 0.0 0.00 0.00 0.00 99 1018.9
20260831070036 70 193 0.0 0.0 0.00 0.00 0.00 100 1018.9
20260831064504 70 193 0.0 0.0 0.00 0.00 0.00 100 1019.1
20260831063025 70 193 0.0 0.0 0.00 0.00 0.00 100 1019.0
20260831061550 71 193 0.0 0.0 0.00 0.00 0.00 100 1019.1
20260831060011 71 192 0.0 0.0 0.00 0.00 0.00 100 1019.0
20260831054534 70 195 0.0 0.0 0.00 0.00 0.00 99 1019.1
20260831053123 70 195 0.0 0.0 0.00 0.00 0.00 99 1019.3
20260831051519 70 195 0.0 0.0 0.00 0.00 0.00 99 1019.3
20260831050035 71 195 0.0 0.0 0.00 0.00 0.00 99 1019.3
20260831044501 71 195 0.0 0.0 0.00 0.00 0.00 99 1019.3
20260831043031 71 195 0.0 0.0 0.00 0.00 0.00 99 1019.4
20260831041557 72 195 0.0 0.0 0.00 0.00 0.00 99 1019.6
20260831040020 72 195 0.0 0.0 0.00 0.00 0.00 99 1019.5
20260831034529 72 195 0.0 0.0 0.00 0.00 0.00 99 1019.6
20260831033107 72 195 0.0 0.0 0.00 0.00 0.00 99 1019.4
20260831031522 72 195 0.0 0.0 0.00 0.00 0.00 99 1019.5
20260831030041 73 216 0.0 0.0 0.00 0.00 0.00 98 1019.4
20260831024557 73 216 0.0 0.0 0.00 0.00 0.00 99 1019.2
20260831023025 73 216 0.0 0.0 0.00 0.00 0.00 98 1019.4
20260831021545 73 216 0.0 0.0 0.00 0.00 0.00 98 1019.3
20260831020012 74 216 0.0 0.0 0.00 0.00 0.00 98 1019.2
20260831014539 74 216 0.0 0.0 0.00 0.00 0.00 98 1019.3
20260831013053 74 216 0.0 0.0 0.00 0.00 0.00 97 1019.0
20260831011516 74 216 0.0 0.0 0.00 0.00 0.00 97 1018.9
20260831010057 75 216 0.0 0.0 0.00 0.00 0.00 96 1018.7
20260831004509 75 216 0.0 0.0 0.00 0.00 0.00 95 1018.8
20260831003031 76 216 0.0 0.0 0.00 0.00 0.00 94 1018.8
20260831001555 77 216 0.0 0.0 0.00 0.00 0.00 92 1018.9
20260831000021 79 216 0.0 0.0 0.00 0.00 0.00 88 1018.9
20260830234543 81 215 0.0 0.0 0.00 0.00 0.00 84 1019.0
20260830233003 86 215 0.0 0.0 0.00 0.00 0.00 76 1019.0
20260830231524 87 215 0.0 0.0 0.00 0.00 0.00 75 1018.9
20260830230040 84 215 0.0 0.0 0.00 0.00 0.00 79 1019.0
20260830224505 83 215 0.0 0.0 0.00 0.00 0.00 83 1019.3
20260830223034 82 218 0.0 0.0 0.00 0.00 0.00 81 1019.2
20260830221550 83 219 0.0 0.0 0.00 0.00 0.00 82 1019.1
20260830220017 84 219 0.0 0.0 0.00 0.00 0.00 79 1019.3
20260830214535 84 280 0.0 0.0 0.00 0.00 0.00 75 1019.2
20260830213110 84 229 0.0 0.0 0.00 0.00 0.00 77 1019.0
20260830213002 84 228 0.0 0.0 0.00 0.00 0.00 77 1019.1
20260830211522 84 239 0.0 2.0 0.00 0.00 0.00 76 1019.2
20260830210048 85 277 0.0 0.0 0.00 0.00 0.00 74 1019.1
20260830204524 85 299 0.0 0.0 0.00 0.00 0.00 74 1019.0
20260830203035 85 6 0.0 1.0 0.00 0.00 0.00 74 1019.0
20260830201602 85 292 0.0 3.0 0.00 0.00 0.00 75 1019.3
20260830200022 85 280 0.0 3.0 0.00 0.00 0.00 73 1019.5
20260830194543 85 283 0.0 4.0 0.00 0.00 0.00 73 1019.8
20260830193019 85 352 0.0 2.0 0.00 0.00 0.00 72 1020.0
20260830191537 85 8 0.0 3.0 0.00 0.00 0.00 73 1020.2
20260830190055 86 295 0.0 2.0 0.00 0.03 0.00 76 1020.3
20260830184529 85 268 1.0 4.0 0.00 0.03 0.00 75 1020.3
20260830183036 85 287 0.0 2.0 0.00 0.03 0.00 72 1020.5
20260830181504 84 23 1.0 5.0 0.00 0.03 0.00 75 1020.8
20260830180024 84 276 0.0 1.0 0.00 0.70 0.00 77 1020.9
20260830174550 84 214 0.0 4.0 0.00 0.70 0.00 76 1021.0
20260830173012 84 69 1.0 3.0 0.00 0.70 0.00 78 1021.1
20260830171540 84 232 1.0 3.0 0.00 0.70 0.00 76 1021.3
20260830170056 84 161 0.0 3.0 0.00 1.49 0.00 78 1021.3
20260830164520 83 235 1.0 3.0 0.00 1.49 0.00 80 1021.3
20260830163038 83 38 0.0 2.0 0.00 1.49 0.00 81 1021.3
20260830161620 81 104 0.0 2.0 0.00 1.49 0.00 80 1021.6
20260830161502 81 143 0.0 2.0 0.00 1.49 0.00 81 1021.6
20260830160025 80 172 0.0 3.0 0.00 1.56 0.00 86 1021.8
20260830154538 79 301 0.0 2.0 0.00 1.56 0.00 87 1021.8
20260830153008 79 340 0.0 4.0 0.00 1.56 0.00 89 1022.0
20260830151528 77 18 1.0 3.0 0.00 1.56 0.00 89 1022.0
20260830150116 77 269 0.0 6.0 0.00 1.56 0.00 90 1022.0
20260830144516 76 321 1.0 4.0 0.00 1.56 0.00 91 1021.9
20260830143043 76 8 0.0 3.0 0.00 1.56 0.00 92 1022.0
20260830141558 76 209 0.0 1.0 0.00 1.56 0.00 96 1022.2
20260830140022 74 358 0.0 0.0 0.00 1.56 0.00 98 1022.4
20260830134544 74 163 0.0 0.0 0.00 1.56 0.00 99 1022.5
20260830133011 73 41 0.0 1.0 0.00 1.56 0.00 100 1022.6
20260830131526 73 156 0.0 0.0 0.00 1.56 0.00 100 1022.5
20260830130108 72 276 0.0 0.0 0.00 1.56 0.00 100 1022.5
20260830124525 72 83 0.0 0.0 0.00 1.56 0.00 100 1022.4
20260830123050 72 202 0.0 0.0 0.00 1.56 0.00 100 1022.3
20260830121515 72 155 0.0 0.0 0.00 1.56 0.00 100 1022.3
20260830120028 72 155 0.0 0.0 0.00 1.56 0.00 100 1022.2
20260830114609 72 157 0.0 0.0 0.00 1.56 0.00 100 1022.1